Burbank, CA

6:01 PM PDT on July 20, 2017 (GMT -0700)
Burbank-Glendale-Pasadena

Weather History for KBUR - April, 2014

Change the Weather History Date:

Tuesday, April 8, 2014

  Actual Average Record
Temperature  
Mean Temperature 74 °F 60 °F  
Max Temperature 90 °F 72 °F 99 °F (1989)
Min Temperature 57 °F 49 °F 35 °F (1978)
Degree Days  
Heating Degree Days 0 5  
Month to date heating degree days 44 47  
Since 1 July heating degree days 609 1406  
Cooling Degree Days 9 1  
Month to date cooling degree days 18 8  
Year to date cooling degree days 98 24  
Growing Degree Days 24 (Base 50)    
Moisture  
Dew Point 30 °F    
Average Humidity 27    
Maximum Humidity 47    
Minimum Humidity 6    
Precipitation  
Precipitation 0.00 in 0.05 in 1.76 in (1965)
Month to date precipitation 0.04 0.41  
Year to date precipitation 4.91 11.39  
Since 1 July precipitation 5.34  
Sea Level Pressure  
Sea Level Pressure 30.03 in    
Wind  
Wind Speed 4 mph (WSW)    
Max Wind Speed 12 mph    
Max Gust Speed 17 mph    
Visibility 10 miles    
Events      
T = Trace of Precipitation, MM = Missing Value Source: NWS Daily Summary

Daily Weather History Graph

Daily Weather History Graph

Search for Another Location

Airport or City:

Trip Planner

Search our weather history database for the weather conditions in past years. The results will help you decide how hot, cold, wet, or windy it might be!

Date:

Astronomy

Apr. 08, 2014 Rise Set
Actual Time 6:31 AM PDT 7:19 PM PDT
Civil Twilight 6:05 AM PDT 7:45 PM PDT
Nautical Twilight 5:35 AM PDT 8:15 PM PDT
Astronomical Twilight 5:04 AM PDT 8:46 PM PDT
Moon 1:32 PM PDT (4/8) 2:31 AM PDT (4/8)
Length of Visible Light 13h 39m
Length of Day
12h 48m
Waxing Gibbous, 63% of the Moon is Illuminated
Apr 8
Waxing Gibbous
Apr 15
Full
Apr 22
Last Quarter
Apr 28
New
May 6
First Quarter

Hourly Weather History & Observations

Time (PDT) Temp. Dew Point Humidity Pressure Visibility Wind Dir Wind Speed Gust Speed Precip Events Conditions
12:53 AM 66.9 °F 35.1 °F 31% 30.05 in 10.0 mi Calm Calm - N/A   Clear
1:53 AM 64.0 °F 36.0 °F 35% 30.05 in 10.0 mi Calm Calm - N/A   Clear
2:53 AM 62.1 °F 36.0 °F 38% 30.04 in 10.0 mi Calm Calm - N/A   Clear
3:53 AM 61.0 °F 36.0 °F 39% 30.04 in 10.0 mi WNW 3.5 mph - N/A   Clear
4:53 AM 61.0 °F 35.1 °F 38% 30.04 in 10.0 mi Calm Calm - N/A   Clear
5:53 AM 57.0 °F 37.0 °F 47% 30.04 in 10.0 mi Calm Calm - N/A   Clear
6:53 AM 57.9 °F 36.0 °F 44% 30.07 in 10.0 mi Calm Calm - N/A   Clear
7:53 AM 63.0 °F 36.0 °F 37% 30.08 in 10.0 mi Calm Calm - N/A   Clear
8:53 AM 69.1 °F 37.9 °F 32% 30.08 in 10.0 mi Calm Calm - N/A   Clear
9:53 AM 75.9 °F 30.0 °F 19% 30.08 in 10.0 mi Calm Calm - N/A   Clear
10:53 AM 82.0 °F 30.9 °F 16% 30.08 in 10.0 mi SSW 3.5 mph - N/A   Clear
11:53 AM 84.9 °F 32.0 °F 15% 30.06 in 10.0 mi Variable 3.5 mph - N/A   Clear
12:53 PM 88.0 °F 28.9 °F 12% 30.04 in 10.0 mi South 6.9 mph - N/A   Clear
1:53 PM 90.0 °F 26.1 °F 10% 30.02 in 10.0 mi Variable 5.8 mph - N/A   Clear
2:53 PM 90.0 °F 24.1 °F 9% 30.00 in 10.0 mi SW 10.4 mph - N/A   Clear
3:53 PM 89.1 °F 18.0 °F 7% 29.99 in 10.0 mi South 10.4 mph - N/A   Clear
4:53 PM 88.0 °F 14.0 °F 6% 29.98 in 10.0 mi South 9.2 mph - N/A   Clear
5:53 PM 87.1 °F 15.1 °F 7% 29.97 in 10.0 mi SSW 8.1 mph - N/A   Clear
6:53 PM 84.9 °F 21.0 °F 10% 29.97 in 10.0 mi SSW 5.8 mph - N/A   Clear
7:53 PM 82.0 °F 28.0 °F 14% 29.99 in 10.0 mi West 4.6 mph - N/A   Clear
8:53 PM 77.0 °F 30.9 °F 19% 30.00 in 10.0 mi NW 3.5 mph - N/A   Clear
9:53 PM 73.0 °F 30.0 °F 20% 30.01 in 10.0 mi WNW 5.8 mph - N/A   Clear
10:53 PM 72.0 °F 30.9 °F 22% 30.01 in 10.0 mi West 5.8 mph - N/A   Clear
11:53 PM 69.1 °F 30.0 °F 23% 30.01 in 10.0 mi WNW 8.1 mph - N/A   Clear